FW3031 Weather Reports


time (UTC)temp
C
wind
direction
speed
KPH
gust
KPH
rain 1hr
cm
rain 24hr
cm
rain mn
cm
humidity
%
barometer
mb
20260905183102 28 190 1.6 8.0 0.00 0.20 0.18 58 1011.5
20260905183049 28 190 1.6 6.4 0.00 0.23 0.20 58 1013.3
20260905182542 28 190 1.6 8.0 0.00 0.23 0.20 60 1013.4
20260905182041 28 190 1.6 4.8 0.00 0.23 0.20 60 1013.5
20260905181612 28 190 0.0 6.4 0.00 0.20 0.18 60 1011.9
20260905181544 28 190 0.0 4.8 0.00 0.23 0.20 60 1013.5
20260905181038 27 190 0.0 6.4 0.00 0.23 0.20 64 1013.6
20260905180538 27 190 1.6 6.4 0.00 0.23 0.20 64 1013.6
20260905180108 27 190 1.6 8.0 0.00 0.20 0.18 65 1012.1
20260905180036 27 190 1.6 6.4 0.00 0.23 0.20 66 1013.6
20260905175537 27 190 1.6 8.0 0.00 0.23 0.20 65 1013.7
20260905175033 27 190 1.6 8.0 0.00 0.23 0.20 66 1013.9
20260905174603 27 190 0.0 8.0 0.00 0.20 0.18 66 1012.3
20260905174534 26 190 1.6 8.0 0.00 0.23 0.20 66 1014.0
20260905174035 26 190 1.6 8.0 0.00 0.23 0.20 67 1014.1
20260905173532 26 190 0.0 4.8 0.00 0.23 0.20 66 1014.2
20260905173103 26 0 0.0 9.7 0.00 0.20 0.18 69 1012.7
20260905173030 26 190 0.0 9.7 0.00 0.23 0.20 69 1014.4
20260905172530 26 190 1.6 9.7 0.00 0.23 0.20 68 1014.6
20260905172030 26 190 0.0 8.0 0.00 0.23 0.20 69 1014.7
20260905171602 26 190 1.6 8.0 0.00 0.20 0.18 68 1013.3
20260905171542 26 190 3.2 8.0 0.00 0.23 0.20 69 1014.9
20260905171026 25 190 0.0 6.4 0.00 0.23 0.20 71 1015.0
20260905170526 25 190 3.2 6.4 0.00 0.23 0.20 71 1015.1
20260905170108 25 0 0.0 6.4 0.00 0.20 0.18 71 1013.5
20260905170025 25 190 0.0 6.4 0.00 0.23 0.20 72 1015.1
20260905165524 25 190 0.0 6.4 0.00 0.23 0.20 72 1015.2
20260905165024 25 190 1.6 6.4 0.00 0.23 0.20 73 1015.2
20260905164605 25 190 1.6 6.4 0.00 0.20 0.18 72 1013.7
20260905164524 25 190 0.0 6.4 0.00 0.23 0.20 73 1015.2
20260905164024 25 190 1.6 6.4 0.00 0.23 0.20 74 1015.2
20260905163524 25 190 3.2 6.4 0.00 0.23 0.20 73 1015.4
20260905163103 25 0 0.0 4.8 0.00 0.20 0.18 72 1014.0
20260905163023 25 190 0.0 3.2 0.00 0.23 0.20 71 1015.5
20260905162521 25 190 0.0 4.8 0.00 0.23 0.20 72 1015.6
20260905162020 25 190 1.6 4.8 0.00 0.23 0.20 74 1015.7
20260905161605 24 0 1.6 4.8 0.00 0.20 0.18 77 1014.3
20260905161521 24 190 0.0 4.8 0.00 0.23 0.20 77 1015.9
20260905161020 24 190 1.6 4.8 0.00 0.23 0.20 76 1015.9
20260905160519 24 190 0.0 0.0 0.00 0.23 0.20 77 1015.9
20260905160137 23 0 0.0 1.6 0.00 0.20 0.18 78 1014.4
20260905160020 23 190 0.0 0.0 0.00 0.23 0.20 79 1016.0
20260905155519 23 190 0.0 1.6 0.00 0.23 0.20 81 1016.1
20260905155016 23 190 0.0 1.6 0.00 0.23 0.20 82 1016.1
20260905154603 23 0 0.0 0.0 0.00 0.20 0.18 82 1014.5
20260905154516 23 190 0.0 0.0 0.00 0.23 0.20 83 1016.0
20260905154016 23 190 0.0 0.0 0.00 0.23 0.20 82 1016.0
20260905153516 23 190 0.0 3.2 0.00 0.23 0.20 83 1015.9
20260905153106 23 0 0.0 1.6 0.00 0.20 0.18 82 1014.3
20260905153017 23 190 0.0 1.6 0.00 0.23 0.20 82 1015.9
20260905152516 23 190 0.0 0.0 0.00 0.23 0.20 81 1015.8
20260905152018 23 190 0.0 3.2 0.00 0.23 0.20 82 1015.9
20260905151610 23 0 1.6 3.2 0.00 0.20 0.18 81 1014.2
20260905151516 23 190 0.0 3.2 0.00 0.23 0.20 82 1015.8
20260905151018 23 190 0.0 3.2 0.00 0.23 0.20 82 1015.8
20260905150515 23 190 0.0 0.0 0.00 0.23 0.20 83 1015.9
20260905150105 22 0 0.0 1.6 0.00 0.20 0.18 83 1014.3
20260905150012 22 190 0.0 0.0 0.00 0.23 0.20 83 1016.0
20260905145510 22 190 0.0 1.6 0.00 0.23 0.20 85 1016.0
20260905145009 22 190 0.0 1.6 0.00 0.23 0.20 85 1016.0
20260905144605 22 0 0.0 1.6 0.00 0.20 0.18 85 1014.1
20260905144516 22 190 0.0 1.6 0.00 0.23 0.20 86 1015.9
20260905144010 22 190 0.0 1.6 0.00 0.23 0.20 87 1016.0
20260905143510 22 190 0.0 1.6 0.00 0.23 0.20 86 1016.0
20260905143113 22 0 0.0 0.0 0.00 0.20 0.18 85 1014.1
20260905143007 22 190 0.0 0.0 0.00 0.23 0.20 87 1015.9
20260905142507 21 190 0.0 0.0 0.00 0.23 0.20 87 1016.0
20260905142004 21 190 0.0 0.0 0.00 0.23 0.20 88 1015.9
20260905141610 21 0 0.0 0.0 0.00 0.20 0.18 87 1014.0
20260905141505 21 190 0.0 0.0 0.00 0.23 0.20 88 1016.0
20260905141006 21 190 0.0 0.0 0.00 0.23 0.20 88 1016.0
20260905140504 21 190 0.0 0.0 0.00 0.23 0.20 89 1016.0
20260905140106 21 0 0.0 0.0 0.00 0.20 0.18 89 1014.0
20260905140004 21 190 0.0 0.0 0.00 0.23 0.20 89 1016.0
20260905135502 20 190 0.0 0.0 0.00 0.23 0.20 90 1015.9
20260905135002 20 190 0.0 0.0 0.00 0.23 0.20 91 1015.8
20260905134610 20 0 0.0 0.0 0.00 0.20 0.18 90 1013.9
20260905134502 20 190 0.0 0.0 0.00 0.23 0.20 91 1015.8
20260905134003 20 190 0.0 0.0 0.00 0.23 0.20 92 1015.8
20260905133502 20 190 0.0 1.6 0.00 0.23 0.20 92 1015.8
20260905133107 20 0 0.0 1.6 0.00 0.20 0.18 92 1014.0
20260905133001 20 190 0.0 1.6 0.00 0.23 0.20 92 1015.8
20260905132502 20 190 0.0 0.0 0.00 0.23 0.20 93 1015.8
20260905132104 20 190 0.0 0.0 0.00 0.23 0.20 94 1015.7
20260905131616 20 190 0.0 0.0 0.00 0.23 0.20 94 1015.6
20260905131607 20 0 0.0 0.0 0.00 0.20 0.18 94 1013.8
20260905131059 20 190 0.0 0.0 0.00 0.23 0.20 94 1015.6
20260905130601 20 190 0.0 0.0 0.00 0.23 0.20 94 1015.7
20260905130105 20 0 0.0 0.0 0.00 0.20 0.18 94 1013.8
20260905130058 20 190 0.0 0.0 0.00 0.23 0.20 94 1015.6
20260905125557 20 190 0.0 0.0 0.00 0.23 0.20 95 1015.5
20260905125058 19 190 0.0 0.0 0.00 0.23 0.20 94 1015.6
20260905124607 20 0 0.0 3.2 0.00 0.20 0.18 94 1013.7
20260905124557 19 190 0.0 3.2 0.00 0.23 0.20 94 1015.5
20260905124055 19 190 0.0 3.2 0.00 0.23 0.20 94 1015.4
20260905123555 19 190 0.0 0.0 0.00 0.23 0.20 94 1015.2
20260905123109 19 0 0.0 0.0 0.00 0.20 0.18 93 1013.5
20260905123056 19 190 0.0 0.0 0.00 0.23 0.20 94 1015.1
20260905122554 19 190 0.0 0.0 0.00 0.23 0.20 94 1015.1
20260905122053 19 190 0.0 0.0 0.00 0.23 0.20 94 1015.1
20260905121612 20 0 0.0 0.0 0.00 0.20 0.18 94 1013.3
20260905121553 20 190 0.0 0.0 0.00 0.23 0.20 94 1015.0
20260905121051 20 190 0.0 0.0 0.00 0.23 0.20 94 1014.9
20260905120554 20 190 0.0 0.0 0.00 0.23 0.20 94 1014.8
20260905120121 20 0 0.0 0.0 0.00 0.20 0.18 94 1013.0
20260905120050 20 190 0.0 0.0 0.00 0.23 0.20 94 1014.6
20260905115550 20 190 0.0 0.0 0.00 0.23 0.20 94 1014.5
20260905115050 20 190 0.0 0.0 0.00 0.23 0.20 94 1014.5
20260905114611 20 0 0.0 1.6 0.00 0.20 0.18 94 1012.8
20260905114552 20 190 0.0 0.0 0.00 0.23 0.20 94 1014.4
20260905114049 20 190 0.0 1.6 0.00 0.23 0.20 94 1014.4
20260905113549 20 190 0.0 1.6 0.00 0.23 0.20 94 1014.1
20260905113110 20 0 0.0 1.6 0.00 0.20 0.18 94 1012.5
20260905113049 20 190 0.0 1.6 0.00 0.23 0.20 94 1014.2
20260905112549 20 190 0.0 1.6 0.00 0.23 0.20 94 1014.3
20260905112047 20 190 0.0 0.0 0.00 0.23 0.20 94 1014.2
20260905111613 20 0 0.0 0.0 0.00 0.20 0.18 93 1012.5
20260905111547 20 190 0.0 0.0 0.00 0.23 0.20 94 1014.1
20260905111048 20 190 0.0 0.0 0.00 0.23 0.20 94 1014.1
20260905110545 20 190 0.0 0.0 0.00 0.23 0.20 93 1014.0
20260905110109 20 0 0.0 0.0 0.00 0.20 0.18 93 1012.3
20260905110044 20 190 0.0 0.0 0.00 0.23 0.20 94 1014.0
20260905105544 20 190 0.0 0.0 0.00 0.23 0.20 93 1013.9
20260905105044 20 190 0.0 0.0 0.00 0.23 0.20 94 1013.9
20260905104605 20 0 0.0 0.0 0.00 0.20 0.18 93 1012.2
20260905104553 20 190 0.0 0.0 0.00 0.23 0.20 94 1013.9
20260905104044 20 190 0.0 0.0 0.00 0.23 0.20 93 1013.9
20260905103547 20 190 0.0 0.0 0.00 0.23 0.20 94 1014.0
20260905103100 20 0 0.0 0.0 0.00 0.20 0.18 93 1012.4
20260905103048 20 190 0.0 0.0 0.00 0.23 0.20 93 1014.0
20260905102542 20 190 0.0 0.0 0.00 0.23 0.20 93 1014.1
20260905102042 20 190 0.0 0.0 0.00 0.23 0.20 93 1014.1
20260905101601 20 0 0.0 0.0 0.00 0.20 0.18 93 1012.4
20260905101542 20 190 0.0 0.0 0.00 0.23 0.20 93 1014.1
20260905101041 20 190 0.0 0.0 0.03 0.23 0.20 93 1014.1
20260905100543 20 190 0.0 0.0 0.03 0.23 0.20 94 1014.2
20260905100110 20 0 0.0 3.2 0.00 0.20 0.18 93 1012.7
20260905100040 20 190 0.0 3.2 0.03 0.23 0.20 94 1014.4
20260905095539 20 190 0.0 3.2 0.03 0.23 0.20 93 1014.4
20260905095039 20 190 0.0 1.6 0.03 0.23 0.20 93 1014.3
20260905094602 20 0 0.0 0.0 0.00 0.20 0.18 92 1012.7
20260905094539 20 190 0.0 0.0 0.03 0.23 0.20 92 1014.3
20260905094037 20 190 0.0 3.2 0.05 0.23 0.20 92 1014.3
20260905093539 20 190 0.0 3.2 0.05 0.23 0.20 92 1014.4
20260905093102 21 0 1.6 3.2 0.08 0.20 0.18 91 1012.9
20260905093040 21 190 0.0 3.2 0.08 0.23 0.20 92 1014.5
20260905092538 21 190 0.0 0.0 0.10 0.23 0.20 92 1014.6
20260905092035 21 190 0.0 0.0 0.13 0.23 0.20 92 1014.6
20260905091622 21 0 0.0 0.0 0.10 0.20 0.18 91 1013.0
20260905091537 21 190 0.0 0.0 0.15 0.23 0.20 92 1014.6
20260905091035 21 190 0.0 0.0 0.13 0.20 0.18 92 1014.6
20260905090533 21 190 0.0 0.0 0.13 0.20 0.18 92 1014.7
20260905090121 21 0 0.0 0.0 0.13 0.18 0.18 92 1013.2
20260905090035 21 190 0.0 0.0 0.15 0.20 0.18 92 1014.8
20260905085532 21 190 0.0 0.0 0.15 0.20 0.18 92 1014.8
20260905085032 21 190 0.0 0.0 0.15 0.20 0.18 92 1014.9
20260905084610 21 0 0.0 0.0 0.13 0.18 0.18 91 1013.3
20260905084530 21 190 0.0 0.0 0.15 0.20 0.18 91 1014.9
20260905084035 21 190 0.0 0.0 0.13 0.18 0.15 91 1014.8
20260905083530 21 190 0.0 0.0 0.08 0.15 0.13 91 1014.9
20260905083100 21 0 0.0 0.0 0.08 0.13 0.10 90 1013.3
20260905083034 21 190 0.0 0.0 0.08 0.15 0.13 90 1015.0
20260905082529 21 190 0.0 0.0 0.05 0.13 0.10 91 1015.1
20260905082032 21 190 0.0 0.0 0.05 0.10 0.08 90 1015.1
20260905081610 21 0 0.0 0.0 0.03 0.08 0.08 91 1013.6
20260905081529 21 190 0.0 0.0 0.03 0.08 0.05 91 1015.1
20260905081028 21 190 0.0 0.0 0.03 0.08 0.05 91 1015.1
20260905080529 21 190 0.0 0.0 0.03 0.08 0.05 90 1015.1
20260905080105 21 0 0.0 0.0 0.00 0.05 0.03 89 1013.5
20260905080035 21 190 0.0 0.0 0.00 0.05 0.05 90 1015.1
20260905075526 21 190 0.0 0.0 0.00 0.05 0.05 89 1015.1
20260905075026 21 190 0.0 0.0 0.00 0.05 0.05 90 1014.9
20260905074601 21 0 0.0 0.0 0.00 0.05 0.03 90 1013.5
20260905074527 21 190 0.0 0.0 0.00 0.05 0.05 90 1015.1
20260905074027 21 190 0.0 0.0 0.03 0.05 0.05 90 1015.1
20260905073627 21 190 0.0 0.0 0.05 0.05 0.05 90 1015.1
20260905073107 21 0 0.0 0.0 0.03 0.05 0.03 90 1013.7
20260905073027 21 190 0.0 0.0 0.05 0.05 0.05 90 1015.2
20260905072527 21 190 0.0 0.0 0.05 0.05 0.05 90 1015.2
20260905072025 21 190 0.0 0.0 0.05 0.05 0.05 90 1015.1
20260905071602 21 0 0.0 1.6 0.03 0.05 0.03 90 1013.6
20260905071527 21 190 0.0 0.0 0.05 0.05 0.05 91 1015.1
20260905071024 21 190 0.0 1.6 0.05 0.05 0.05 91 1015.0
20260905070524 21 190 0.0 3.2 0.05 0.05 0.05 90 1015.0
20260905070114 21 0 0.0 3.2 0.03 0.05 0.03 89 1013.3
20260905070023 21 190 0.0 3.2 0.05 0.05 0.05 90 1015.0
20260905065521 21 190 0.0 1.6 0.05 0.05 0.05 89 1015.0
20260905065029 21 190 0.0 3.2 0.05 0.05 0.05 89 1015.0
20260905064601 21 0 0.0 6.4 0.03 0.05 0.03 89 1013.4
20260905064521 21 190 0.0 6.4 0.05 0.05 0.05 89 1015.0
20260905064024 21 190 0.0 9.7 0.00 0.03 0.00 89 1015.1
20260905063522 21 190 0.0 11.3 0.00 0.03 0.00 89 1015.2
20260905063104 21 190 3.2 19.3 0.00 0.00 0.00 89 1013.7
20260905063020 21 190 3.2 19.3 0.00 0.03 0.00 89 1015.3
20260905062518 21 190 6.4 19.3 0.00 0.03 0.00 89 1015.3
20260905062017 21 190 1.6 11.3 0.00 0.03 0.00 88 1015.2
20260905061623 21 190 3.2 12.9 0.00 0.00 0.00 87 1013.7
20260905061517 21 190 3.2 11.3 0.00 0.03 0.00 87 1015.3
20260905061017 21 190 1.6 12.9 0.00 0.03 0.00 87 1015.2
20260905060515 21 190 4.8 12.9 0.03 0.03 0.00 87 1015.2
20260905060117 21 190 0.0 9.7 0.00 0.00 0.00 87 1013.6
20260905060014 21 190 0.0 9.7 0.03 0.03 0.00 87 1015.1
20260905055514 21 190 0.0 9.7 0.03 0.03 0.03 87 1015.1
20260905055015 21 190 1.6 8.0 0.03 0.03 0.03 86 1015.1
20260905054608 22 0 0.0 8.0 0.00 0.00 0.00 85 1013.4
20260905054515 21 190 0.0 8.0 0.03 0.03 0.03 85 1015.0
20260905054016 22 190 0.0 8.0 0.03 0.03 0.03 85 1014.9
20260905053513 22 190 0.0 11.3 0.03 0.03 0.03 84 1014.8
20260905053102 22 0 4.8 17.7 0.00 0.00 0.00 82 1013.2
20260905053014 22 190 4.8 17.7 0.03 0.03 0.03 82 1014.8
20260905052513 22 190 4.8 17.7 0.03 0.03 0.03 80 1014.8
20260905052014 23 190 6.4 16.1 0.03 0.03 0.03 77 1014.7
20260905051621 24 190 4.8 8.0 0.00 0.00 0.00 76 1013.2
20260905051523 24 190 3.2 8.0 0.03 0.03 0.03 76 1014.7
20260905051012 25 190 0.0 3.2 0.03 0.03 0.03 72 1014.6
20260905050512 25 190 0.0 6.4 0.00 0.00 0.00 68 1014.5
20260905050105 25 190 1.6 11.3 0.00 0.00 0.00 66 1012.8
20260905050013 25 190 0.0 11.3 0.00 0.00 0.00 66 1014.4
20260905045512 26 190 4.8 11.3 0.00 0.00 0.00 65 1014.5
20260905045012 26 190 1.6 4.8 0.00 0.00 0.00 62 1014.4
20260905044600 26 0 0.0 6.4 0.00 0.00 0.00 61 1012.8
20260905044513 26 190 0.0 3.2 0.00 0.00 0.00 62 1014.2
20260905044011 26 190 0.0 6.4 0.00 0.00 0.00 62 1014.1
20260905043511 26 190 0.0 3.2 0.00 0.00 0.00 62 1014.0
20260905043105 26 0 0.0 3.2 0.00 0.00 0.00 61 1012.5
20260905043011 26 190 0.0 3.2 0.00 0.00 0.00 62 1014.0
20260905042511 26 190 0.0 3.2 0.00 0.00 0.00 62 1014.0
20260905042011 26 190 0.0 4.8 0.00 0.00 0.00 62 1014.0
20260905041608 26 0 0.0 3.2 0.00 0.00 0.00 61 1012.2
20260905041511 26 190 0.0 3.2 0.00 0.00 0.00 62 1013.9
20260905041012 26 190 0.0 4.8 0.00 0.00 0.00 63 1013.9
20260905040612 26 190 0.0 4.8 0.00 0.00 0.00 63 1013.7
20260905040109 26 190 0.0 6.4 0.00 0.00 0.00 63 1012.2
20260905040010 26 190 0.0 4.8 0.00 0.00 0.00 63 1013.8
20260905035509 26 190 0.0 6.4 0.00 0.00 0.00 64 1013.9
20260905035009 26 190 0.0 4.8 0.00 0.00 0.00 65 1013.9
20260905034613 26 190 0.0 8.0 0.00 0.00 0.00 65 1012.4
20260905034511 26 190 0.0 8.0 0.00 0.00 0.00 65 1013.8
20260905034009 26 190 1.6 8.0 0.00 0.00 0.00 66 1013.8
20260905033509 26 190 1.6 6.4 0.00 0.00 0.00 68 1013.7
20260905033113 26 0 0.0 6.4 0.00 0.00 0.00 68 1012.3
20260905033010 26 190 0.0 3.2 0.00 0.00 0.00 68 1013.7
20260905032508 26 190 0.0 6.4 0.00 0.00 0.00 67 1013.6
20260905032009 26 190 0.0 4.8 0.00 0.00 0.00 67 1013.6
20260905031621 26 0 0.0 6.4 0.00 0.00 0.00 65 1012.1
20260905031509 26 190 0.0 6.4 0.00 0.00 0.00 66 1013.6
20260905031008 27 190 1.6 6.4 0.00 0.00 0.00 65 1013.4
20260905030508 27 190 0.0 0.0 0.00 0.00 0.00 64 1013.3
20260905030106 27 0 0.0 0.0 0.00 0.00 0.00 64 1011.9
20260905030008 27 190 0.0 0.0 0.00 0.00 0.00 64 1013.3
20260905025507 27 190 0.0 0.0 0.00 0.00 0.00 63 1013.1
20260905025007 27 190 0.0 0.0 0.00 0.00 0.00 63 1012.9
20260905024611 27 0 0.0 0.0 0.00 0.00 0.00 63 1011.5
20260905024509 27 190 0.0 0.0 0.00 0.00 0.00 63 1012.9
20260905024007 27 190 0.0 0.0 0.00 0.00 0.00 62 1012.8
20260905023507 27 190 0.0 0.0 0.00 0.00 0.00 64 1012.7
20260905023105 27 0 0.0 0.0 0.00 0.00 0.00 64 1011.2
20260905023007 27 190 0.0 0.0 0.00 0.00 0.00 64 1012.5
20260905022511 27 190 0.0 0.0 0.00 0.00 0.00 64 1012.4
20260905022010 27 190 0.0 6.4 0.00 0.00 0.00 64 1012.3
20260905021600 27 0 0.0 6.4 0.00 0.00 0.00 63 1010.7
20260905021506 27 190 0.0 6.4 0.00 0.00 0.00 63 1012.1
20260905021006 27 190 0.0 6.4 0.00 0.00 0.00 63 1012.0
20260905020506 27 190 1.6 8.0 0.00 0.00 0.00 62 1011.8
20260905020105 27 190 1.6 8.0 0.00 0.00 0.00 62 1010.3
20260905020009 27 190 0.0 8.0 0.00 0.00 0.00 62 1011.6
20260905015507 27 190 3.2 8.0 0.00 0.00 0.00 62 1011.5
20260905015007 27 190 0.0 6.4 0.00 0.00 0.00 63 1011.3
20260905014604 27 190 3.2 8.0 0.00 0.00 0.00 63 1010.0
20260905014507 27 190 1.6 8.0 0.00 0.00 0.00 63 1011.3
20260905014006 27 190 1.6 8.0 0.00 0.00 0.00 63 1011.3
20260905013505 27 190 1.6 8.0 0.00 0.00 0.00 62 1011.3
20260905013109 28 190 3.2 9.7 0.00 0.00 0.00 61 1009.9
20260905013010 28 190 3.2 8.0 0.00 0.00 0.00 61 1011.2
20260905012505 28 190 3.2 9.7 0.00 0.00 0.00 61 1011.0
20260905012005 28 190 3.2 9.7 0.00 0.00 0.00 60 1010.9
20260905011606 28 190 3.2 6.4 0.00 0.00 0.00 59 1009.5
20260905011513 28 190 3.2 6.4 0.00 0.00 0.00 59 1010.9
20260905011005 28 190 0.0 6.4 0.00 0.00 0.00 58 1010.7
20260905010505 28 190 0.0 8.0 0.00 0.00 0.00 57 1010.5
20260905010108 29 0 0.0 14.5 0.00 0.00 0.00 55 1009.1
20260905010003 28 190 0.0 14.5 0.00 0.00 0.00 55 1010.4
20260905005503 29 190 3.2 14.5 0.00 0.00 0.00 54 1010.3
20260905005004 29 190 0.0 6.4 0.00 0.00 0.00 54 1010.1
20260905004602 30 190 0.0 3.2 0.00 0.00 0.00 53 1008.7
20260905004503 30 190 0.0 3.2 0.00 0.00 0.00 53 1009.9
20260905004003 30 190 0.0 0.0 0.00 0.00 0.00 53 1009.9
20260905003504 30 190 0.0 3.2 0.00 0.00 0.00 52 1009.7
20260905003111 30 190 0.0 9.7 0.00 0.00 0.00 50 1008.4
20260905003003 30 190 0.0 6.4 0.00 0.00 0.00 51 1009.7
20260905002502 30 190 0.0 11.3 0.00 0.00 0.00 51 1009.6
20260905002002 30 190 3.2 11.3 0.00 0.00 0.00 51 1009.6
20260905001608 30 190 3.2 14.5 0.00 0.00 0.00 52 1008.3
20260905001504 30 190 1.6 14.5 0.00 0.00 0.00 52 1009.6
20260905001003 30 190 3.2 16.1 0.00 0.00 0.00 52 1009.5
20260905000502 31 190 8.0 16.1 0.00 0.00 0.00 50 1009.5
20260905000113 31 190 3.2 11.3 0.00 0.00 0.00 51 1008.0
20260905000002 31 190 3.2 8.0 0.00 0.00 0.00 51 1009.3
20260904235503 31 190 3.2 12.9 0.00 0.00 0.00 51 1009.2
20260904235002 31 190 4.8 14.5 0.00 0.00 0.00 51 1009.0
20260904234602 31 190 4.8 17.7 0.00 0.00 0.00 50 1007.9
20260904234502 31 190 4.8 17.7 0.00 0.00 0.00 50 1009.0
20260904234001 32 190 6.4 17.7 0.00 0.00 0.00 49 1009.0
20260904233502 32 190 1.6 12.9 0.00 0.00 0.00 47 1009.1
20260904233122 32 0 4.8 12.9 0.00 0.00 0.00 45 1007.8
20260904233001 32 190 4.8 12.9 0.00 0.00 0.00 45 1009.1
20260904232501 33 190 3.2 9.7 0.00 0.00 0.00 44 1008.9
20260904232100 33 190 3.2 11.3 0.00 0.00 0.00 44 1008.8
20260904231609 33 190 4.8 11.3 0.00 0.00 0.00 44 1007.5
20260904231600 33 190 4.8 11.3 0.00 0.00 0.00 44 1008.8
20260904231100 33 190 3.2 11.3 0.00 0.00 0.00 46 1008.7
20260904230600 33 190 4.8 11.3 0.00 0.00 0.00 45 1008.7
20260904230159 33 190 3.2 11.3 0.00 0.00 0.00 45 1008.6
20260904230119 33 190 3.2 11.3 0.00 0.00 0.00 43 1007.4
20260904225557 32 190 3.2 11.3 0.00 0.00 0.00 42 1008.6
20260904225057 32 190 4.8 14.5 0.00 0.00 0.00 44 1008.6
20260904224608 32 190 6.4 14.5 0.00 0.00 0.00 43 1007.2
20260904224558 32 190 6.4 14.5 0.00 0.00 0.00 44 1008.5
20260904224058 32 190 3.2 11.3 0.00 0.00 0.00 43 1008.5
20260904223557 32 190 4.8 14.5 0.00 0.00 0.00 43 1008.4
20260904223132 32 190 6.4 14.5 0.00 0.00 0.00 42 1007.2
20260904223104 32 190 4.8 14.5 0.00 0.00 0.00 42 1008.4
20260904222556 33 190 4.8 11.3 0.00 0.00 0.00 42 1008.5
20260904222100 33 190 3.2 11.3 0.00 0.00 0.00 42 1008.5
20260904221606 33 190 4.8 17.7 0.00 0.00 0.00 41 1007.3
20260904221557 33 190 4.8 17.7 0.00 0.00 0.00 42 1008.6
20260904221056 33 190 6.4 16.1 0.00 0.00 0.00 42 1008.6
20260904220554 33 190 1.6 6.4 0.00 0.00 0.00 41 1008.7
20260904220107 33 190 1.6 8.0 0.00 0.00 0.00 41 1008.7
20260904220105 33 190 3.2 8.0 0.00 0.00 0.00 40 1007.4
20260904215552 33 190 3.2 8.0 0.00 0.00 0.00 39 1008.8
20260904215050 33 190 0.0 8.0 0.00 0.00 0.00 39 1008.9
20260904214604 33 190 0.0 11.3 0.00 0.00 0.00 38 1007.6
20260904214549 33 190 0.0 8.0 0.00 0.00 0.00 38 1009.0
20260904214049 33 190 3.2 11.3 0.00 0.00 0.00 38 1009.1
20260904213549 33 190 6.4 11.3 0.00 0.00 0.00 38 1009.2
20260904213104 33 190 3.2 11.3 0.00 0.00 0.00 38 1008.0
20260904213048 33 190 1.6 11.3 0.00 0.00 0.00 38 1009.2
20260904212547 34 190 4.8 11.3 0.00 0.00 0.00 38 1009.4
20260904212045 34 190 0.0 6.4 0.00 0.00 0.00 38 1009.5
20260904211602 34 190 1.6 6.4 0.00 0.00 0.00 37 1008.3
20260904211546 34 190 1.6 6.4 0.00 0.00 0.00 38 1009.7
20260904211044 33 190 1.6 8.0 0.00 0.00 0.00 39 1009.7
20260904210543 33 190 1.6 8.0 0.00 0.00 0.00 40 1009.8
20260904210120 33 190 0.0 11.3 0.00 0.00 0.00 39 1008.6
20260904210047 33 190 1.6 9.7 0.00 0.00 0.00 40 1010.0
20260904205541 33 190 3.2 11.3 0.00 0.00 0.00 39 1010.1
20260904205038 33 190 4.8 11.3 0.00 0.00 0.00 40 1010.2
20260904204602 33 190 3.2 11.3 0.00 0.00 0.00 42 1009.0
20260904204538 33 190 1.6 11.3 0.00 0.00 0.00 42 1010.2
20260904204037 33 190 0.0 9.7 0.00 0.00 0.00 41 1010.4
20260904203536 32 190 1.6 11.3 0.00 0.00 0.00 41 1010.6
20260904203105 32 190 4.8 12.9 0.00 0.00 0.00 42 1009.5
20260904203036 32 190 3.2 12.9 0.00 0.00 0.00 42 1010.7
20260904202535 33 190 6.4 12.9 0.00 0.00 0.00 43 1010.8
20260904202033 32 190 1.6 12.9 0.00 0.00 0.00 43 1010.8
20260904201601 32 190 1.6 11.3 0.00 0.00 0.00 44 1009.8
20260904201531 32 190 1.6 11.3 0.00 0.00 0.00 44 1010.9
20260904201030 32 190 3.2 14.5 0.00 0.00 0.00 44 1011.0
20260904200532 32 190 6.4 14.5 0.00 0.00 0.00 44 1011.1
20260904200105 32 190 1.6 11.3 0.00 0.00 0.00 44 1010.0
20260904200046 32 190 0.0 11.3 0.00 0.00 0.00 46 1011.2
20260904195528 32 190 4.8 11.3 0.00 0.00 0.00 46 1011.3
20260904195027 32 190 1.6 6.4 0.00 0.00 0.00 46 1011.3
20260904194606 32 190 1.6 8.0 0.00 0.00 0.00 45 1010.2
20260904194539 32 190 3.2 8.0 0.00 0.00 0.00 46 1011.4
20260904194025 32 190 4.8 9.7 0.00 0.00 0.00 46 1011.5
20260904193524 32 190 4.8 14.5 0.00 0.00 0.00 47 1011.7
20260904193125 32 190 1.6 8.0 0.00 0.00 0.00 47 1010.5
20260904193024 32 190 0.0 8.0 0.00 0.00 0.00 48 1011.8
20260904192526 32 190 3.2 9.7 0.00 0.00 0.00 49 1011.9
20260904192020 32 190 4.8 9.7 0.00 0.00 0.00 50 1012.0
20260904191602 32 0 0.0 14.5 0.00 0.00 0.00 50 1010.9
20260904191521 31 190 1.6 14.5 0.00 0.00 0.00 50 1012.2
20260904191019 31 190 6.4 14.5 0.00 0.00 0.00 50 1012.2
20260904190520 31 190 4.8 14.5 0.00 0.00 0.00 51 1012.2
20260904190111 31 190 4.8 14.5 0.00 0.00 0.00 50 1011.1
20260904190017 31 190 1.6 14.5 0.00 0.00 0.00 51 1012.4
20260904185516 31 190 1.6 6.4 0.00 0.00 0.00 52 1012.6
20260904185015 31 190 0.0 9.7 0.00 0.00 0.00 50 1012.6
20260904184605 31 190 4.8 11.3 0.00 0.00 0.00 49 1011.4
20260904184514 31 190 3.2 11.3 0.00 0.00 0.00 50 1012.8
20260904184015 31 190 0.0 9.7 0.00 0.00 0.00 50 1012.8
20260904183514 32 190 3.2 9.7 0.00 0.00 0.00 49 1012.9